This is the latest recevied weather packets stored in our database for station/object N3SBK. If no packets are shown the sender has not sent any weather packets the latest 10 day(s).
| Time | Temp. | Humidity | Pressure | Rain* | Wind** | Luminosity | Snow |
|---|---|---|---|---|---|---|---|
| 1777422640 | 16.67° C | 80% | 1004.6 hPa | 0 mm | - | 0 W/m² | - |
| 1777422335 | 16.67° C | 80% | 1004.6 hPa | 0 mm | - | 0 W/m² | - |
| 1777422030 | 16.67° C | 79% | 1004.7 hPa | 0 mm | - | 0 W/m² | - |
| 1777421725 | 17.22° C | 79% | 1004.7 hPa | 0 mm | - | 1 W/m² | - |
| 1777421421 | 17.22° C | 78% | 1005.2 hPa | 0 mm | - | 1 W/m² | - |
| 1777421117 | 17.22° C | 78% | 1005.2 hPa | 0 mm | - | 2 W/m² | - |
| 1777420814 | 17.22° C | 77% | 1005 hPa | 0 mm | - | 4 W/m² | - |
| 1777420510 | 17.78° C | 77% | 1004.6 hPa | 0 mm | - | 6 W/m² | - |
| 1777420206 | 17.78° C | 75% | 1004.7 hPa | 0 mm | - | 8 W/m² | - |
| 1777419901 | 18.33° C | 75% | 1004.7 hPa | 0 mm | - | 11 W/m² | - |
| 1777419599 | 18.89° C | 73% | 1004.3 hPa | 0 mm | - | 13 W/m² | - |
| 1777419298 | 18.89° C | 72% | 1004.3 hPa | 0 mm | - | 16 W/m² | - |
| 1777418996 | 18.89° C | 72% | 1004.5 hPa | 0 mm | - | 19 W/m² | - |
| 1777418690 | 18.89° C | 70% | 1004.4 hPa | 0 mm | - | 24 W/m² | - |
| 1777418387 | 18.89° C | 71% | 1004.4 hPa | 0 mm | - | 23 W/m² | - |
| 1777418083 | 19.44° C | 70% | 1004.6 hPa | 0 mm | - | 25 W/m² | - |
| 1777417780 | 20° C | 72% | 1004.8 hPa | 0 mm | - | 25 W/m² | - |
| 1777417475 | 20° C | 71% | 1004.6 hPa | 0 mm | - | 35 W/m² | - |
| 1777417172 | 19.44° C | 70% | 1004.8 hPa | 0 mm | - | 39 W/m² | - |
| 1777416867 | 19.44° C | 73% | 1005.1 hPa | 0 mm | - | 62 W/m² | - |
| 1777416563 | 18.89° C | 73% | 1005.1 hPa | 0 mm | - | 68 W/m² | - |
| 1777416260 | 18.89° C | 72% | 1005.3 hPa | 0 mm | - | 45 W/m² | - |
| 1777415958 | 18.89° C | 72% | 1005.4 hPa | 0 mm | - | 54 W/m² | - |
| 1777415655 | 19.44° C | 70% | 1005.4 hPa | 0 mm | - | 30 W/m² | - |
| 1777415350 | 19.44° C | 71% | 1005.5 hPa | 0 mm | - | 66 W/m² | - |
* Rain latest hour (hover to see other rain measurements)
** Current wind speed in m/s (hover to see current wind gust speed)